EA2RCU-15 Weather Reports


Display with metric or nautical units.
time (UTC)temp
F
wind
direction
speed
MPH
gust
MPH
rain 1hr
in
rain 24hr
in
rain mn
in
humidity
%
barometer
mb
20260509182505 61 327 0.0 0.0 0.00 0.16 0.16 80 991.0
20260509182004 61 327 0.0 0.0 0.00 0.16 0.16 79 991.0
20260509181504 61 326 0.0 0.0 0.16 0.16 0.16 78 991.0
20260509181004 61 327 0.0 0.0 0.16 0.16 0.16 77 991.0
20260509180504 61 327 0.0 0.0 0.16 0.16 0.16 77 991.0
20260509180004 61 327 0.0 0.0 0.16 0.16 0.16 77 991.0
20260509175504 61 326 0.0 0.0 0.16 0.16 0.16 75 991.0
20260509175004 61 327 0.0 0.0 0.16 0.16 0.16 75 991.0
20260509174505 61 326 0.0 0.0 0.16 0.16 0.16 74 991.0
20260509174004 61 326 0.0 0.0 0.16 0.16 0.16 73 991.0
20260509173504 61 336 0.0 0.0 0.16 0.16 0.16 73 991.0
20260509173004 61 346 0.0 0.0 0.16 0.16 0.16 72 991.0
20260509172505 61 1 0.0 0.0 0.16 0.16 0.16 70 991.0
20260509172004 61 37 0.0 0.0 0.16 0.16 0.16 68 991.0
20260509171504 62 77 0.0 0.0 0.00 0.00 0.00 61 991.0
20260509171004 63 79 0.0 3.0 0.00 0.00 0.00 54 993.0
20260509170505 64 297 0.0 5.0 0.00 0.00 0.00 52 993.0
20260509170004 66 279 2.0 6.0 0.00 0.00 0.00 45 993.0
20260509165504 67 275 0.0 3.0 0.00 0.00 0.00 35 990.0
20260509165004 67 31 0.0 0.0 0.00 0.00 0.00 33 990.0
20260509164504 68 345 0.0 3.0 0.00 0.00 0.00 33 990.0
20260509164004 68 325 0.0 3.0 0.00 0.00 0.00 33 990.0
20260509163504 68 100 1.0 3.0 0.00 0.00 0.00 32 990.0
20260509163005 69 341 1.0 6.0 0.00 0.00 0.00 32 990.0
20260509162504 69 110 2.0 6.0 0.00 0.00 0.00 32 990.0
20260509162004 71 312 0.0 6.0 0.00 0.00 0.00 34 990.0
20260509161504 71 276 0.0 0.0 0.00 0.00 0.00 33 990.0
20260509161004 71 276 0.0 0.0 0.00 0.00 0.00 33 990.0
20260509160504 71 276 0.0 0.0 0.00 0.00 0.00 33 990.0
20260509160004 71 276 0.0 0.0 0.00 0.00 0.00 32 990.0
20260509155504 72 276 0.0 0.0 0.00 0.00 0.00 32 1037.0
20260509155004 72 276 0.0 0.0 0.00 0.00 0.00 32 1037.0
20260509154504 73 277 0.0 2.0 0.00 0.00 0.00 31 1037.0
20260509154005 73 279 0.0 0.0 0.00 0.00 0.00 30 990.0
20260509153504 74 279 0.0 0.0 0.00 0.00 0.00 29 990.0
20260509153005 74 278 0.0 3.0 0.00 0.00 0.00 28 990.0
20260509152504 75 246 0.0 0.0 0.00 0.00 0.00 28 990.0
20260509152004 75 246 0.0 0.0 0.00 0.00 0.00 28 990.0
20260509151505 75 246 0.0 0.0 0.00 0.00 0.00 27 990.0
20260509151004 75 252 0.0 0.0 0.00 0.00 0.00 27 990.0
20260509150504 76 246 0.0 0.0 0.00 0.00 0.00 26 990.0
20260509150004 76 271 0.0 0.0 0.00 0.00 0.00 26 990.0
20260509145504 76 275 0.0 2.0 0.00 0.00 0.00 27 990.0
20260509145004 76 275 0.0 3.0 0.00 0.00 0.00 26 990.0
20260509144504 76 122 0.0 2.0 0.00 0.00 0.00 26 990.0
20260509144004 76 284 1.0 3.0 0.00 0.00 0.00 26 990.0
20260509143504 77 213 0.0 0.0 0.00 0.00 0.00 26 990.0
20260509143005 77 247 0.0 3.0 0.00 0.00 0.00 25 990.0
20260509142504 77 183 0.0 0.0 0.00 0.00 0.00 25 990.0
20260509142004 77 173 0.0 0.0 0.00 0.00 0.00 25 990.0
20260509141504 77 282 0.0 3.0 0.00 0.00 0.00 26 990.0
20260509141004 77 202 0.0 2.0 0.00 0.00 0.00 25 990.0
20260509140504 77 149 0.0 0.0 0.00 0.00 0.00 25 990.0
20260509140005 77 212 0.0 0.0 0.00 0.00 0.00 26 990.0
20260509135504 77 216 0.0 2.0 0.00 0.00 0.00 26 990.0
20260509135004 76 253 0.0 0.0 0.00 0.00 0.00 27 990.0
20260509134504 75 258 0.0 2.0 0.00 0.00 0.00 27 990.0
20260509134005 75 238 0.0 2.0 0.00 0.00 0.00 27 990.0
20260509133504 74 177 0.0 3.0 0.00 0.00 0.00 28 990.0
20260509133004 75 125 0.0 3.0 0.00 0.00 0.00 28 990.0
20260509132504 75 177 0.0 2.0 0.00 0.00 0.00 30 990.0
20260509132004 74 134 0.0 3.0 0.00 0.00 0.00 31 990.0
20260509131504 74 179 0.0 0.0 0.00 0.00 0.00 31 990.0
20260509131004 73 179 0.0 0.0 0.00 0.00 0.00 32 990.0
20260509130506 73 162 0.0 0.0 0.00 0.00 0.00 32 990.0
20260509130006 72 231 0.0 0.0 0.00 0.00 0.00 32 990.0
20260509125506 71 170 0.0 2.0 0.00 0.00 0.00 33 991.0
20260509125006 72 292 0.0 2.0 0.00 0.00 0.00 32 991.0
20260509124506 72 292 0.0 3.0 0.00 0.00 0.00 32 991.0
20260509124006 72 173 1.0 3.0 0.00 0.00 0.00 32 991.0
20260509123506 73 215 0.0 3.0 0.00 0.00 0.00 32 991.0
20260509123005 72 240 0.0 0.0 0.00 0.00 0.00 32 991.0
20260509122506 73 240 0.0 2.0 0.00 0.00 0.00 32 991.0
20260509122005 73 229 0.0 0.0 0.00 0.00 0.00 32 991.0
20260509121506 73 250 0.0 0.0 0.00 0.00 0.00 32 991.0
20260509121005 72 272 0.0 3.0 0.00 0.00 0.00 33 991.0
20260509120505 72 266 1.0 3.0 0.00 0.00 0.00 33 991.0
20260509120005 72 158 0.0 3.0 0.00 0.00 0.00 34 991.0
20260509115505 71 253 1.0 3.0 0.00 0.00 0.00 34 991.0
20260509115006 71 123 0.0 0.0 0.00 0.00 0.00 34 991.0
20260509114506 71 123 0.0 3.0 0.00 0.00 0.00 34 991.0
20260509114006 71 171 0.0 0.0 0.00 0.00 0.00 34 992.0
20260509113506 71 171 0.0 0.0 0.00 0.00 0.00 34 992.0
20260509113006 71 198 0.0 0.0 0.00 0.00 0.00 34 992.0
20260509112506 71 256 0.0 2.0 0.00 0.00 0.00 34 992.0
20260509112006 71 191 0.0 3.0 0.00 0.00 0.00 34 992.0
20260509111506 71 280 0.0 3.0 0.00 0.00 0.00 33 992.0
20260509111005 72 282 0.0 2.0 0.00 0.00 0.00 33 992.0
20260509110506 72 328 0.0 0.0 0.00 0.00 0.00 34 992.0
20260509110006 72 37 0.0 0.0 0.00 0.00 0.00 34 992.0
20260509105506 72 37 0.0 0.0 0.00 0.00 0.00 34 992.0
20260509105005 71 37 0.0 0.0 0.00 0.00 0.00 35 992.0
20260509104505 71 37 0.0 0.0 0.00 0.00 0.00 36 992.0
20260509104006 70 37 0.0 0.0 0.00 0.00 0.00 37 992.0
20260509103505 71 37 0.0 0.0 0.00 0.00 0.00 36 992.0
20260509103006 70 37 0.0 0.0 0.00 0.00 0.00 37 992.0
20260509102505 70 37 0.0 0.0 0.00 0.00 0.00 37 992.0
20260509102006 70 37 0.0 0.0 0.00 0.00 0.00 41 992.0
20260509101505 70 37 0.0 0.0 0.00 0.00 0.00 42 992.0
20260509101005 69 37 0.0 0.0 0.00 0.00 0.00 43 992.0
20260509100505 68 37 0.0 0.0 0.00 0.00 0.00 42 992.0
20260509100006 68 37 0.0 0.0 0.00 0.00 0.00 42 992.0
20260509095506 68 38 0.0 0.0 0.00 0.00 0.00 42 992.0
20260509095005 68 37 0.0 0.0 0.00 0.00 0.00 43 992.0
20260509094505 68 37 0.0 0.0 0.00 0.00 0.00 44 992.0
20260509094005 68 38 0.0 0.0 0.00 0.00 0.00 45 992.0
20260509093506 68 43 0.0 0.0 0.00 0.00 0.00 45 992.0
20260509093006 68 43 0.0 0.0 0.00 0.00 0.00 46 992.0
20260509092506 68 43 0.0 0.0 0.00 0.00 0.00 48 992.0
20260509092006 67 43 0.0 0.0 0.00 0.00 0.00 47 992.0
20260509091506 67 43 0.0 0.0 0.00 0.00 0.00 46 992.0
20260509091005 67 43 0.0 0.0 0.00 0.00 0.00 47 993.0
20260509090505 67 43 0.0 0.0 0.00 0.00 0.00 47 993.0
20260509090005 67 43 0.0 0.0 0.00 0.00 0.00 50 993.0
20260509085505 67 43 0.0 0.0 0.00 0.00 0.00 50 993.0
20260509085006 67 43 0.0 0.0 0.00 0.00 0.00 51 993.0
20260509084506 67 43 0.0 0.0 0.00 0.00 0.00 52 993.0
20260509084005 67 43 0.0 0.0 0.00 0.00 0.00 53 993.0
20260509083505 67 43 0.0 0.0 0.00 0.00 0.00 58 993.0
20260509083005 67 43 0.0 0.0 0.00 0.00 0.00 62 993.0
20260509082505 67 43 0.0 0.0 0.00 0.00 0.00 65 993.0
20260509082006 66 43 0.0 0.0 0.00 0.00 0.00 67 993.0
20260509081505 66 43 0.0 0.0 0.00 0.00 0.00 69 993.0
20260509081006 65 43 0.0 0.0 0.00 0.00 0.00 69 993.0
20260509080506 65 43 0.0 0.0 0.00 0.00 0.00 71 993.0
20260509080006 64 43 0.0 0.0 0.00 0.00 0.00 72 993.0
20260509075505 64 43 0.0 0.0 0.00 0.00 0.00 73 993.0
20260509075006 64 43 0.0 0.0 0.00 0.00 0.00 75 993.0
20260509074505 64 43 0.0 0.0 0.00 0.00 0.00 77 993.0
20260509074005 64 43 0.0 0.0 0.00 0.00 0.00 79 993.0
20260509073506 63 43 0.0 0.0 0.00 0.00 0.00 80 993.0
20260509073006 63 43 0.0 0.0 0.00 0.00 0.00 81 993.0
20260509072505 63 43 0.0 0.0 0.00 0.00 0.00 82 1041.0
20260509072005 63 43 0.0 0.0 0.00 0.00 0.00 83 1041.0
20260509071506 62 43 0.0 0.0 0.00 0.00 0.00 84 1041.0
20260509071006 61 43 0.0 0.0 0.00 0.00 0.00 84 993.0
20260509070506 60 43 0.0 0.0 0.00 0.00 0.00 85 993.0
20260509070005 59 43 0.0 0.0 0.00 0.00 0.00 86 993.0
20260509065505 59 43 0.0 0.0 0.00 0.00 0.00 86 993.0
20260509065006 58 43 0.0 0.0 0.00 0.00 0.00 86 993.0
20260509064505 58 43 0.0 0.0 0.00 0.00 0.00 87 993.0
20260509064005 58 43 0.0 0.0 0.00 0.00 0.00 87 993.0
20260509063505 58 43 0.0 0.0 0.00 0.00 0.00 87 993.0
20260509063006 58 43 0.0 0.0 0.00 0.00 0.00 88 993.0
20260509062505 57 43 0.0 0.0 0.00 0.00 0.00 88 993.0
20260509062006 57 43 0.0 0.0 0.00 0.00 0.00 88 993.0
20260509061505 57 43 0.0 0.0 0.00 0.00 0.00 88 993.0
20260509061005 56 43 0.0 0.0 0.00 0.00 0.00 88 993.0
20260509060506 56 43 0.0 0.0 0.00 0.00 0.00 88 993.0
20260509060006 56 43 0.0 0.0 0.00 0.00 0.00 88 993.0
20260509055507 56 43 0.0 0.0 0.00 0.00 0.00 88 993.0
20260509055006 55 43 0.0 0.0 0.00 0.00 0.00 88 993.0
20260509054505 55 43 0.0 0.0 0.00 0.00 0.00 88 993.0
20260509054006 55 43 0.0 0.0 0.00 0.00 0.00 88 993.0
20260509053506 55 43 0.0 0.0 0.00 0.00 0.00 88 993.0
20260509053006 55 43 0.0 0.0 0.00 0.00 0.00 88 993.0
20260509052506 55 43 0.0 0.0 0.00 0.00 0.00 88 993.0
20260509052006 55 43 0.0 0.0 0.00 0.00 0.00 88 993.0
20260509051506 55 43 0.0 0.0 0.00 0.00 0.00 88 993.0
20260509051005 54 43 0.0 0.0 0.00 0.00 0.00 88 993.0
20260509050505 55 43 0.0 0.0 0.00 0.00 0.00 88 993.0
20260509050005 55 43 0.0 0.0 0.00 0.00 0.00 88 993.0
20260509045505 55 43 0.0 0.0 0.00 0.00 0.00 88 993.0
20260509045005 55 43 0.0 0.0 0.00 0.00 0.00 88 993.0
20260509044505 55 43 0.0 0.0 0.00 0.00 0.00 88 993.0
20260509044005 55 43 0.0 0.0 0.00 0.00 0.00 88 992.0
20260509043506 55 43 0.0 0.0 0.00 0.00 0.00 88 992.0
20260509043006 55 43 0.0 0.0 0.00 0.00 0.00 88 992.0
20260509042505 55 43 0.0 0.0 0.00 0.00 0.00 88 993.0
20260509042006 55 43 0.0 0.0 0.00 0.00 0.00 88 993.0
20260509041505 55 43 0.0 0.0 0.00 0.00 0.00 88 993.0
20260509041006 55 43 0.0 0.0 0.00 0.00 0.00 88 1040.0
20260509040506 55 43 0.0 0.0 0.00 0.00 0.00 88 1040.0
20260509040005 55 43 0.0 0.0 0.00 0.00 0.00 87 1040.0
20260509035506 55 43 0.0 0.0 0.00 0.00 0.00 87 993.0
20260509035005 55 43 0.0 0.0 0.00 0.00 0.00 87 993.0
20260509034505 55 43 0.0 0.0 0.00 0.00 0.00 87 993.0
20260509034006 55 43 0.0 0.0 0.00 0.00 0.00 87 993.0
20260509033506 55 43 0.0 0.0 0.00 0.00 0.00 86 993.0
20260509033006 55 42 0.0 0.0 0.00 0.00 0.00 86 993.0
20260509032505 55 42 0.0 0.0 0.00 0.00 0.00 85 993.0
20260509032006 55 42 0.0 0.0 0.00 0.00 0.00 86 993.0
20260509031506 55 42 0.0 0.0 0.00 0.00 0.00 86 993.0
20260509031006 55 43 0.0 0.0 0.00 0.00 0.00 85 993.0
20260509030505 55 43 0.0 0.0 0.00 0.00 0.00 85 993.0
20260509030005 55 43 0.0 0.0 0.00 0.00 0.00 85 993.0
20260509025505 55 43 0.0 0.0 0.00 0.00 0.00 85 993.0
20260509025005 55 42 0.0 0.0 0.00 0.00 0.00 85 993.0
20260509024506 55 42 0.0 0.0 0.00 0.00 0.00 85 993.0
20260509024006 55 42 0.0 0.0 0.00 0.00 0.00 85 993.0
20260509023505 55 42 0.0 0.0 0.00 0.00 0.00 85 993.0
20260509023006 55 43 0.0 0.0 0.00 0.00 0.00 85 993.0
20260509022505 55 42 0.0 0.0 0.00 0.00 0.00 85 993.0
20260509022005 55 43 0.0 0.0 0.00 0.00 0.00 85 993.0
20260509021505 55 42 0.0 0.0 0.00 0.00 0.00 85 993.0
20260509021005 55 42 0.0 0.0 0.00 0.00 0.00 85 993.0
20260509020505 55 42 0.0 0.0 0.00 0.00 0.00 85 993.0
20260509020006 55 42 0.0 0.0 0.00 0.00 0.00 85 993.0
20260509015505 55 42 0.0 0.0 0.00 0.00 0.00 85 993.0
20260509015005 55 43 0.0 0.0 0.00 0.00 0.00 85 993.0
20260509014505 55 43 0.0 0.0 0.00 0.00 0.00 85 993.0
20260509014005 55 42 0.0 0.0 0.00 0.00 0.00 85 994.0
20260509013506 55 43 0.0 0.0 0.00 0.00 0.00 86 994.0
20260509013005 55 43 0.0 0.0 0.00 0.00 0.00 85 994.0
20260509012506 55 43 0.0 0.0 0.00 0.00 0.00 85 994.0
20260509012005 55 42 0.0 0.0 0.00 0.00 0.00 85 994.0
20260509011505 55 43 0.0 0.0 0.00 0.00 0.00 85 994.0
20260509011005 55 43 0.0 0.0 0.00 0.00 0.00 85 994.0
20260509010517 55 42 0.0 0.0 0.00 0.00 0.00 85 994.0
20260509010006 55 42 0.0 0.0 0.00 0.00 0.00 85 994.0
20260509005505 55 42 0.0 0.0 0.00 0.00 0.00 85 994.0
20260509005005 55 42 0.0 0.0 0.00 0.00 0.00 85 994.0
20260509004505 55 43 0.0 0.0 0.00 0.00 0.00 85 994.0
20260509004005 55 43 0.0 0.0 0.00 0.00 0.00 85 994.0
20260509003505 55 42 0.0 0.0 0.00 0.00 0.00 84 994.0
20260509003006 55 43 0.0 0.0 0.00 0.00 0.00 84 994.0
20260509002505 55 43 0.0 0.0 0.00 0.00 0.00 84 994.0
20260509002005 55 43 0.0 0.0 0.00 0.00 0.00 84 994.0
20260509001505 55 42 0.0 0.0 0.00 0.00 0.00 84 994.0
20260509001005 56 42 0.0 0.0 0.00 0.00 0.00 84 1042.0
20260509000505 56 43 0.0 0.0 0.00 0.00 0.00 84 1042.0
20260509000005 56 43 0.0 0.0 0.00 0.00 0.00 84 1042.0
20260508235505 56 43 0.0 0.0 0.00 0.00 0.00 84 994.0
20260508235006 55 42 0.0 0.0 0.00 0.00 0.00 83 994.0
20260508234505 56 43 0.0 0.0 0.00 0.00 0.00 83 994.0
20260508234005 56 59 0.0 0.0 0.00 0.00 0.00 84 994.0
20260508233505 56 61 0.0 0.0 0.00 0.00 0.00 84 994.0
20260508233006 56 2 0.0 0.0 0.00 0.00 0.00 84 994.0
20260508232505 56 2 0.0 0.0 0.00 0.00 0.00 84 994.0
20260508232005 56 347 0.0 0.0 0.00 0.00 0.00 84 994.0
20260508231505 56 5 0.0 0.0 0.00 0.00 0.00 84 994.0
20260508231006 56 59 0.0 0.0 0.00 0.00 0.00 84 994.0